Regional Weather Roundup
Issued by NWS

Home | Current Version | Previous Version | Graphics & Text | Print | Product List | Glossary On
Versions: 1 2 3 4 5 6 7 8 9 10 11 12 13 14 15 16 17 18 19 20 21 22 23 24 25 26 27 28 29 30 31 32 33 34 35 36 37 38 39 40 41 42 43 44 45 46 47 48 49 50
000
ASUS43 KTOP 291508
RWRKS

WEATHER ROUNDUP FOR KANSAS
NATIONAL WEATHER SERVICE GOODLAND KS
1000 AM CDT WED MAR 29 2017

NOTE:  "FAIR" INDICATES FEW OR NO CLOUDS BELOW 12,000 FEET WITH NO
SIGNIFICANT WEATHER AND/OR OBSTRUCTIONS TO VISIBILITY.

KSZ001>006-013>018-027>032-041>047-291600-
NORTHWEST KANSAS

CITY           SKY/WX    TMP DP  RH WIND       PRES   REMARKS
GOODLAND       LGT RAIN  40  39  97 N20G26    29.98S FOG     WCI  30
HAYS             N/A     45  44  97 N25       29.81F FOG
HILL CITY      LGT RAIN  44  43  96 NE21G30   29.91S FOG
RUSSELL        RAIN      46  44  93 N24G36    29.78S
$$

KSZ061>065-074>080-084>089-291600-
SOUTHWEST KANSAS

CITY           SKY/WX    TMP DP  RH WIND       PRES   REMARKS
DODGE CITY     RAIN      43  42  97 N24G33    29.77F FOG
ELKHART          N/A     38  29  70 N21         N/A  WCI  28
GARDEN CITY    RAIN      42  40  92 N23G31    29.85R FOG
GREAT BEND     LGT RAIN  46  44  93 N28G37    29.72F
LIBERAL        CLOUDY    43  37  81 N23G31    29.84R
PRATT          LGT RAIN  44  44  99 N28       29.67F
$$

KSZ066>073-081>083-090>101-291600-
SOUTHEAST KANSAS

CITY           SKY/WX    TMP DP  RH WIND       PRES   REMARKS
CHANUTE        CLOUDY    58  55  90 SE17      29.64R
COFFEYVILLE    CLOUDY    63  59  87 SE14      29.63R
MEDICINE LODGE   N/A     48  46  93 N20G30    29.61F
NEWTON         CLOUDY    50  49  96 NE15G22   29.64R
PARSONS        CLOUDY    62  58  86 SE12G22   29.64S
WICHITA INTL   CLOUDY    54  52  93 NE12      29.61R
WICHITA JABRA  CLOUDY    53  51  93 NE16G25   29.61R
WICHITA MCCONL LGT RAIN  54  51  90 E15G24    29.59F
WINFIELD       CLOUDY    60  56  86 E8        29.60R
$$

KSZ007>012-019>026-033>040-048>060-102>105-291600-
NORTHEAST KANSAS

CITY           SKY/WX    TMP DP  RH WIND       PRES   REMARKS
CONCORDIA      RAIN      46  45  96 NE22G30   29.82F FOG
EMPORIA        LGT RAIN  51  51 100 E23G30    29.65F FOG
LAWRENCE       LGT RAIN  50  49  96 NE21G30   29.75F FOG
MANHATTAN      LGT RAIN  49  49 100 NE20G28   29.75F FOG
MARYSVILLE     RAIN      46  45  93 NE20G26   29.84F
OLATHE IND     RAIN      50  48  93 E23G35    29.75F FOG
OLATHE EXE     TSTM      49  49 100 E15G29    29.78F FOG
SALINA         LGT RAIN  49  47  93 N23G29    29.72F
TOPEKA BILLARD LGT RAIN  50  50 100 E14G25    29.75F FOG
TOPEKA FORBES  LGT RAIN  50  49  96 E15       29.74F FOG
$$



USA.gov is the U.S. government's official web portal to all federal, state and local government web resources and services.